GPS BIIRM-6 (PRN 07)

Last updated on Sun Dec 21 2025 00:03:22 GMT+0000 (Coordinated Universal Time)

1 32711U 08012A 25353.65378308 .00000067 00000+0 00000+0 0 9994 2 32711 54.4779 157.0969 0202735 245.0276 112.8468 2.00565937130151
UTC large
Height (km)
Speed (km/s)
/
Latitude / Longitude
Inclination (degrees)
Orbital Period (minutes)
Azimuth
Elevation
Range (km)
Doppler Factor

Next 0 passes for location: London (51.5072 / 0.1276)

Sorry there are no passes over London.